CSN6759 ZGGG-ZJSY

Flight info

Callsign CSN6759
Flight time 1h 3m
Altitude 38100
Route VIBOS2 VIBOS R473 ZUH R200 BIGRO G221 WL
Aircraft A20N/M-SDE2E3FGHIRWXY/LB1

Departure

Time 2026-04-27 11:10
Airport Guangzhou Baiyun International Airport (ZGGG)

Arrival

Time 2026-04-27 12:13
Airport Sanya Phoenix International Airport (ZJSY)
Time Latitude Longitude Altitude Speed Heading
2026-04-27 10:50 23.40878 113.30995 61 ft 0 kts 284°
2026-04-27 11:00 23.40865 113.31042 55 ft 4 kts 289°
2026-04-27 11:00 23.40856 113.31070 57 ft 4 kts 294°
2026-04-27 11:00 23.40843 113.31095 55 ft 4 kts 310°
2026-04-27 11:00 23.40825 113.31111 53 ft 3 kts
2026-04-27 11:01 23.40816 113.31109 55 ft 0 kts 14°
2026-04-27 11:03 23.40836 113.31114 59 ft 9 kts 14°
2026-04-27 11:03 23.40932 113.31145 59 ft 17 kts 28°
2026-04-27 11:03 23.40955 113.31163 56 ft 17 kts 42°
2026-04-27 11:03 23.40961 113.31170 59 ft 17 kts 47°
2026-04-27 11:04 23.40972 113.31186 57 ft 2 kts 57°
2026-04-27 11:04 23.40973 113.31188 57 ft 0 kts 59°
2026-04-27 11:04 23.40973 113.31189 57 ft 1 kts 59°
2026-04-27 11:04 23.40977 113.31197 58 ft 0 kts 63°
2026-04-27 11:05 23.40978 113.31198 59 ft 2 kts 64°
2026-04-27 11:05 23.40982 113.31211 58 ft 0 kts 71°
2026-04-27 11:05 23.40986 113.31230 57 ft 0 kts 81°
2026-04-27 11:06 23.40985 113.31231 57 ft 1 kts 95°
2026-04-27 11:07 23.40968 113.31237 61 ft 9 kts 162°
2026-04-27 11:07 23.40915 113.31285 59 ft 2 kts 108°
2026-04-27 11:07 23.40913 113.31300 55 ft 6 kts 96°
2026-04-27 11:07 23.40903 113.31344 58 ft 6 kts 100°
2026-04-27 11:08 23.40878 113.31384 58 ft 8 kts 131°
2026-04-27 11:08 23.40835 113.31415 56 ft 7 kts 170°
2026-04-27 11:08 23.40789 113.31403 54 ft 7 kts 197°
2026-04-27 11:08 23.40766 113.31396 53 ft 0 kts 193°
2026-04-27 11:09 23.40735 113.31388 51 ft 20 kts 194°
2026-04-27 11:09 23.40371 113.31289 57 ft 89 kts 193°
2026-04-27 11:09 23.39559 113.31071 57 ft 148 kts 194°
2026-04-27 11:09 23.38499 113.30754 478 ft 155 kts 194°
2026-04-27 11:10 23.37466 113.30452 1053 ft 158 kts 194°
2026-04-27 11:10 23.36374 113.30126 1578 ft 165 kts 195°
2026-04-27 11:10 23.35228 113.29783 2229 ft 178 kts 195°
2026-04-27 11:10 23.33961 113.29405 2765 ft 200 kts 195°
2026-04-27 11:11 23.32555 113.28988 3352 ft 216 kts 195°
2026-04-27 11:11 23.31075 113.28549 4022 ft 227 kts 196°
2026-04-27 11:11 23.29594 113.27812 4492 ft 249 kts 210°
2026-04-27 11:11 23.28090 113.26771 5166 ft 261 kts 215°
2026-04-27 11:12 23.26615 113.25593 6050 ft 264 kts 218°
2026-04-27 11:12 23.25164 113.24348 6925 ft 267 kts 219°
2026-04-27 11:12 23.23711 113.23066 7733 ft 272 kts 219°
2026-04-27 11:12 23.22225 113.21751 8555 ft 277 kts 219°
2026-04-27 11:13 23.20732 113.20440 9383 ft 282 kts 218°
2026-04-27 11:13 23.19186 113.19097 10136 ft 288 kts 218°
2026-04-27 11:13 23.17563 113.17700 10525 ft 307 kts 218°
2026-04-27 11:13 23.15832 113.16220 10939 ft 323 kts 218°
2026-04-27 11:14 23.14043 113.14695 11561 ft 330 kts 218°
2026-04-27 11:14 23.12225 113.13146 12282 ft 333 kts 218°
2026-04-27 11:14 23.10567 113.11734 12970 ft 336 kts 218°
2026-04-27 11:14 23.08720 113.10161 13752 ft 339 kts 218°
2026-04-27 11:15 23.06879 113.08593 14442 ft 342 kts 219°
2026-04-27 11:15 23.04994 113.06988 15135 ft 346 kts 219°
2026-04-27 11:15 23.03083 113.05360 15815 ft 350 kts 219°
2026-04-27 11:15 23.01156 113.03719 16483 ft 354 kts 219°
2026-04-27 11:16 22.99203 113.02056 17139 ft 358 kts 219°
2026-04-27 11:16 22.97257 113.00400 17769 ft 361 kts 219°
2026-04-27 11:16 22.95266 112.98707 18335 ft 366 kts 219°
2026-04-27 11:16 22.93226 112.96972 18596 ft 378 kts 219°
2026-04-27 11:17 22.91126 112.95185 18909 ft 386 kts 219°
2026-04-27 11:17 22.88996 112.93375 19330 ft 391 kts 219°
2026-04-27 11:17 22.86846 112.91551 19785 ft 394 kts 219°
2026-04-27 11:17 22.85412 112.90335 20095 ft 395 kts 219°
2026-04-27 11:18 22.82502 112.87867 20753 ft 398 kts 219°
2026-04-27 11:18 22.80306 112.86006 21231 ft 401 kts 220°
2026-04-27 11:18 22.78849 112.84771 21552 ft 403 kts 220°
2026-04-27 11:18 22.76631 112.82893 22054 ft 406 kts 220°
2026-04-27 11:19 22.73670 112.80384 22735 ft 409 kts 220°
2026-04-27 11:19 22.72152 112.79100 23087 ft 411 kts 220°
2026-04-27 11:19 22.69889 112.77185 23581 ft 413 kts 220°
2026-04-27 11:19 22.67613 112.75259 23983 ft 417 kts 220°
2026-04-27 11:20 22.65319 112.73319 24387 ft 420 kts 220°
2026-04-27 11:20 22.63010 112.71367 24790 ft 423 kts 220°
2026-04-27 11:20 22.60682 112.69400 25202 ft 425 kts 220°
2026-04-27 11:20 22.58341 112.67422 25585 ft 428 kts 220°
2026-04-27 11:21 22.56017 112.65460 25960 ft 431 kts 220°
2026-04-27 11:21 22.53644 112.63458 26334 ft 433 kts 220°
2026-04-27 11:21 22.51252 112.61442 26699 ft 436 kts 221°
2026-04-27 11:21 22.48852 112.59419 27061 ft 439 kts 221°
2026-04-27 11:22 22.46439 112.57385 27410 ft 441 kts 221°
2026-04-27 11:22 22.44009 112.55339 27736 ft 444 kts 221°
2026-04-27 11:22 22.41564 112.53281 28069 ft 446 kts 221°
2026-04-27 11:22 22.39111 112.51218 28411 ft 448 kts 221°
2026-04-27 11:23 22.36640 112.49140 28730 ft 451 kts 221°
2026-04-27 11:23 22.34162 112.47057 29040 ft 453 kts 221°
2026-04-27 11:23 22.31666 112.44960 29355 ft 456 kts 221°
2026-04-27 11:23 22.29151 112.42847 29655 ft 458 kts 221°
2026-04-27 11:24 22.26631 112.40731 29950 ft 461 kts 221°
2026-04-27 11:24 22.24091 112.38601 30201 ft 463 kts 221°
2026-04-27 11:24 22.21542 112.36464 30621 ft 460 kts 221°
2026-04-27 11:24 22.19036 112.34368 31284 ft 451 kts 222°
2026-04-27 11:25 22.16604 112.32336 31910 ft 444 kts 222°
2026-04-27 11:25 22.14169 112.30301 32408 ft 441 kts 222°
2026-04-27 11:25 22.11749 112.28276 32824 ft 439 kts 222°
2026-04-27 11:25 22.09333 112.26253 33201 ft 439 kts 222°
2026-04-27 11:26 22.06918 112.24231 33563 ft 438 kts 223°
2026-04-27 11:26 22.04509 112.22214 33920 ft 438 kts 223°
2026-04-27 11:26 22.02101 112.20199 34213 ft 438 kts 223°
2026-04-27 11:26 21.99691 112.18185 34496 ft 438 kts 222°
2026-04-27 11:27 21.97283 112.16173 34772 ft 437 kts 222°
2026-04-27 11:27 21.94908 112.14192 35044 ft 437 kts 223°
2026-04-27 11:27 21.92501 112.12184 35317 ft 437 kts 223°
2026-04-27 11:27 21.90094 112.10177 35588 ft 437 kts 223°
2026-04-27 11:28 21.87685 112.08170 35844 ft 437 kts 223°
2026-04-27 11:28 21.85282 112.06168 36109 ft 437 kts 223°
2026-04-27 11:28 21.82876 112.04165 36357 ft 437 kts 223°
2026-04-27 11:28 21.80498 112.02185 36583 ft 437 kts 223°
2026-04-27 11:29 21.78091 112.00183 36824 ft 437 kts 223°
2026-04-27 11:29 21.75682 111.98179 37057 ft 437 kts 223°
2026-04-27 11:29 21.73277 111.96180 37294 ft 436 kts 223°
2026-04-27 11:29 21.70870 111.94180 37516 ft 436 kts 223°
2026-04-27 11:30 21.68466 111.92184 37731 ft 436 kts 223°
2026-04-27 11:30 21.66060 111.90187 37950 ft 436 kts 223°
2026-04-27 11:30 21.61277 111.86219 38009 ft 435 kts 223°
2026-04-27 11:31 21.56609 111.82111 38011 ft 430 kts 229°
2026-04-27 11:31 21.52363 111.77600 38007 ft 429 kts 231°
2026-04-27 11:32 21.48221 111.73033 38011 ft 429 kts 231°
2026-04-27 11:32 21.44074 111.68435 38003 ft 429 kts 231°
2026-04-27 11:33 21.39908 111.63835 38003 ft 429 kts 231°
2026-04-27 11:33 21.35734 111.59243 37997 ft 429 kts 231°
2026-04-27 11:34 21.31582 111.54681 37997 ft 429 kts 231°
2026-04-27 11:34 21.27407 111.50100 37997 ft 429 kts 231°
2026-04-27 11:35 21.23238 111.45526 38004 ft 428 kts 231°
2026-04-27 11:35 21.19064 111.40952 37996 ft 428 kts 231°
2026-04-27 11:36 21.14902 111.36394 37993 ft 428 kts 231°
2026-04-27 11:36 21.10764 111.31867 37996 ft 427 kts 231°
2026-04-27 11:37 21.06607 111.27323 37992 ft 427 kts 231°
2026-04-27 11:37 21.02445 111.22778 37990 ft 427 kts 231°
2026-04-27 11:38 20.98284 111.18236 37991 ft 427 kts 231°
2026-04-27 11:38 20.94117 111.13693 37988 ft 428 kts 231°
2026-04-27 11:39 20.89927 111.09121 37989 ft 438 kts 231°
2026-04-27 11:39 20.85616 111.04422 37990 ft 447 kts 231°
2026-04-27 11:40 20.81224 110.99649 37983 ft 450 kts 231°
2026-04-27 11:40 20.76828 110.94880 37982 ft 449 kts 231°
2026-04-27 11:41 20.72462 110.90144 37982 ft 449 kts 231°
2026-04-27 11:41 20.68079 110.85390 37979 ft 449 kts 231°
2026-04-27 11:42 20.63692 110.80634 37976 ft 449 kts 231°
2026-04-27 11:42 20.59303 110.75883 37974 ft 448 kts 231°
2026-04-27 11:43 20.54946 110.71169 37972 ft 448 kts 231°
2026-04-27 11:43 20.50557 110.66425 37969 ft 449 kts 231°
2026-04-27 11:44 20.46142 110.61652 37973 ft 453 kts 231°
2026-04-27 11:44 20.41700 110.56860 37975 ft 454 kts 231°
2026-04-27 11:45 20.38008 110.52881 37971 ft 454 kts 231°
2026-04-27 11:45 20.32845 110.47321 37969 ft 453 kts 231°
2026-04-27 11:46 20.30624 110.44931 37969 ft 453 kts 231°
2026-04-27 11:46 20.29912 110.44164 37967 ft 453 kts 230°
2026-04-27 11:47 20.25451 110.39367 37967 ft 453 kts 231°
2026-04-27 11:47 20.21003 110.34586 37964 ft 453 kts 231°
2026-04-27 11:48 20.16892 110.30171 37960 ft 453 kts 230°
2026-04-27 11:48 20.12445 110.25401 37960 ft 453 kts 230°
2026-04-27 11:49 20.08008 110.20645 37962 ft 452 kts 230°
2026-04-27 11:49 20.03565 110.15901 37961 ft 453 kts 228°
2026-04-27 11:50 20.01067 110.13806 37958 ft 460 kts 217°
2026-04-27 11:50 19.98260 110.12139 37962 ft 464 kts 212°
2026-04-27 11:50 19.92478 110.09189 37929 ft 458 kts 210°
2026-04-27 11:51 19.89584 110.07816 37628 ft 450 kts 209°
2026-04-27 11:51 19.86714 110.06465 36854 ft 453 kts 209°
2026-04-27 11:51 19.80931 110.03721 35425 ft 456 kts 210°
2026-04-27 11:52 19.78024 110.02329 34644 ft 460 kts 210°
2026-04-27 11:52 19.75096 110.00920 33861 ft 463 kts 210°
2026-04-27 11:52 19.72146 109.99498 32948 ft 467 kts 210°
2026-04-27 11:52 19.69217 109.98084 32085 ft 470 kts 210°
2026-04-27 11:53 19.66228 109.96642 31300 ft 471 kts 209°
2026-04-27 11:53 19.63247 109.95209 30707 ft 468 kts 209°
2026-04-27 11:53 19.60285 109.93786 30077 ft 466 kts 208°
2026-04-27 11:53 19.57328 109.92365 29355 ft 464 kts 208°
2026-04-27 11:54 19.54395 109.90958 28694 ft 460 kts 208°
2026-04-27 11:54 19.51525 109.89581 28062 ft 456 kts 208°
2026-04-27 11:54 19.48637 109.88196 27407 ft 453 kts 208°
2026-04-27 11:54 19.45772 109.86821 26754 ft 450 kts 208°
2026-04-27 11:55 19.42950 109.85469 26455 ft 438 kts 208°
2026-04-27 11:55 19.40213 109.84161 25892 ft 426 kts 209°
2026-04-27 11:55 19.37528 109.82878 24992 ft 421 kts 209°
2026-04-27 11:55 19.34878 109.81616 24249 ft 412 kts 209°
2026-04-27 11:56 19.32292 109.80390 23614 ft 401 kts 209°
2026-04-27 11:56 19.29772 109.79195 22929 ft 391 kts 209°
2026-04-27 11:56 19.27330 109.78038 22303 ft 378 kts 209°
2026-04-27 11:56 19.24920 109.77064 21654 ft 374 kts 200°
2026-04-27 11:57 19.22390 109.76523 21174 ft 366 kts 195°
2026-04-27 11:57 19.19891 109.76132 20623 ft 359 kts 194°
2026-04-27 11:57 19.17424 109.75767 20083 ft 358 kts 193°
2026-04-27 11:57 19.14947 109.75400 19522 ft 361 kts 193°
2026-04-27 11:58 19.12454 109.75028 18943 ft 362 kts 193°
2026-04-27 11:58 19.09949 109.74654 18363 ft 365 kts 193°
2026-04-27 11:58 19.07430 109.74278 17765 ft 364 kts 193°
2026-04-27 11:58 19.04958 109.73911 17485 ft 353 kts 193°
2026-04-27 11:59 19.02563 109.73557 17277 ft 341 kts 193°
2026-04-27 11:59 19.00272 109.73216 16982 ft 333 kts 193°
2026-04-27 11:59 18.97980 109.72873 16525 ft 332 kts 193°
2026-04-27 11:59 18.95697 109.72531 16045 ft 331 kts 193°
2026-04-27 12:00 18.93412 109.72189 15601 ft 330 kts 192°
2026-04-27 12:00 18.91148 109.71851 15191 ft 327 kts 192°
2026-04-27 12:00 18.88895 109.71515 14740 ft 325 kts 192°
2026-04-27 12:00 18.86660 109.71181 14242 ft 323 kts 192°
2026-04-27 12:01 18.84437 109.70848 13768 ft 322 kts 192°
2026-04-27 12:01 18.82258 109.70522 13246 ft 319 kts 191°
2026-04-27 12:01 18.80064 109.70194 12717 ft 317 kts 191°
2026-04-27 12:01 18.77888 109.69868 12166 ft 313 kts 191°
2026-04-27 12:02 18.75746 109.69548 11490 ft 309 kts 191°
2026-04-27 12:02 18.73627 109.69231 10877 ft 305 kts 191°
2026-04-27 12:02 18.71538 109.68919 10287 ft 302 kts 190°
2026-04-27 12:02 18.69471 109.68610 9794 ft 295 kts 190°
2026-04-27 12:03 18.67493 109.68317 9428 ft 282 kts 190°
2026-04-27 12:03 18.66201 109.68123 8933 ft 286 kts 190°
2026-04-27 12:03 18.63561 109.67727 8201 ft 289 kts 189°
2026-04-27 12:03 18.61573 109.67431 7734 ft 288 kts 189°
2026-04-27 12:04 18.59602 109.67137 7417 ft 280 kts 189°
2026-04-27 12:04 18.58324 109.66948 7257 ft 269 kts 189°
2026-04-27 12:04 18.55952 109.66596 6909 ft 252 kts 189°
2026-04-27 12:04 18.54809 109.66426 6651 ft 248 kts 189°
2026-04-27 12:05 18.53103 109.66170 6248 ft 248 kts 189°
2026-04-27 12:05 18.51401 109.65916 5952 ft 244 kts 189°
2026-04-27 12:05 18.49733 109.65666 5669 ft 241 kts 189°
2026-04-27 12:05 18.48081 109.65420 5366 ft 238 kts 189°
2026-04-27 12:06 18.46444 109.65175 4962 ft 238 kts 188°
2026-04-27 12:06 18.44806 109.64931 4669 ft 237 kts 188°
2026-04-27 12:06 18.43186 109.64690 4400 ft 234 kts 188°
2026-04-27 12:06 18.41599 109.64454 4061 ft 233 kts 188°
2026-04-27 12:07 18.39997 109.64216 3750 ft 232 kts 187°
2026-04-27 12:07 18.38399 109.63979 3457 ft 231 kts 188°
2026-04-27 12:07 18.37061 109.63780 3250 ft 229 kts 187°
2026-04-27 12:07 18.35492 109.63530 3196 ft 228 kts 191°
2026-04-27 12:08 18.34102 109.62896 3194 ft 211 kts 221°
2026-04-27 12:08 18.33257 109.61693 3180 ft 196 kts 238°
2026-04-27 12:08 18.32800 109.60380 3182 ft 193 kts 255°
2026-04-27 12:08 18.32605 109.59024 3101 ft 184 kts 259°
2026-04-27 12:09 18.32439 109.57697 2842 ft 181 kts 259°
2026-04-27 12:09 18.32269 109.56405 2579 ft 175 kts 259°
2026-04-27 12:09 18.32107 109.55168 2345 ft 166 kts 259°
2026-04-27 12:09 18.31954 109.53992 2130 ft 158 kts 259°
2026-04-27 12:10 18.31809 109.52877 1938 ft 151 kts 259°
2026-04-27 12:10 18.31667 109.51795 1787 ft 147 kts 259°
2026-04-27 12:10 18.31529 109.50730 1580 ft 147 kts 259°
2026-04-27 12:10 18.31389 109.49657 1373 ft 148 kts 260°
2026-04-27 12:11 18.31248 109.48579 1195 ft 150 kts 261°
2026-04-27 12:11 18.31108 109.47495 960 ft 149 kts 261°
2026-04-27 12:11 18.30974 109.46414 792 ft 149 kts 261°
2026-04-27 12:11 18.30837 109.45343 634 ft 148 kts 262°
2026-04-27 12:12 18.30695 109.44273 434 ft 147 kts 261°
2026-04-27 12:12 18.30556 109.43224 239 ft 146 kts 261°
2026-04-27 12:12 18.30414 109.42160 104 ft 143 kts 261°
2026-04-27 12:12 18.30297 109.41260 90 ft 91 kts 263°
2026-04-27 12:13 18.30251 109.40914 82 ft 11 kts 263°
2026-04-27 12:13 18.30267 109.40840 83 ft 2 kts 340°
2026-04-27 12:13 18.30341 109.40843 85 ft 16 kts 347°
2026-04-27 12:13 18.30388 109.40834 88 ft 0 kts 352°
2026-04-27 12:15 18.30405 109.40832 88 ft 6 kts 352°
2026-04-27 12:15 18.30468 109.40818 89 ft 12 kts 331°
2026-04-27 12:16 18.30473 109.40712 87 ft 18 kts 275°
2026-04-27 12:16 18.30559 109.40667 86 ft 13 kts 353°
2026-04-27 12:16 18.30642 109.40656 86 ft 11 kts 352°
2026-04-27 12:16 18.30699 109.40636 85 ft 7 kts 309°
2026-04-27 12:17 18.30698 109.40596 86 ft 3 kts 238°
2026-04-27 12:17 18.30698 109.40595 86 ft 0 kts 243°
2026-04-27 12:17 18.30700 109.40592 86 ft 1 kts 279°
2026-04-27 12:17 18.30711 109.40583 83 ft 5 kts 331°
2026-04-27 12:18 18.30732 109.40577 84 ft 0 kts 356°
2026-04-27 12:18 18.30736 109.40577 86 ft 2 kts 356°
2026-04-27 12:18 18.30761 109.40575 86 ft 5 kts 354°
2026-04-27 12:18 18.30770 109.40573 86 ft 1 kts 351°
2026-04-27 12:19 18.30774 109.40573 86 ft 0 kts 352°